DW5488 Weather Reports


time (UTC)temp
C
wind
direction
speed
KPH
gust
KPH
rain 1hr
cm
rain 24hr
cm
rain mn
cm
humidity
%
barometer
mb
20260506004627 22 344 8.0 17.7 0.00 0.00 0.00 71 1000.6
20260506003058 22 327 14.5 24.1 0.00 0.00 0.00 71 1000.6
20260506001555 22 327 14.5 30.6 0.00 0.00 0.00 70 1000.5
20260506000153 23 320 20.9 32.2 0.00 0.00 0.00 69 1000.0
20260505234611 24 319 20.9 33.8 0.00 0.00 0.00 68 1000.0
20260505233050 25 311 16.1 30.6 0.00 0.00 0.00 66 999.6
20260505231553 26 311 12.9 33.8 0.00 0.00 0.00 64 999.7
20260505230053 27 315 14.5 24.1 0.00 0.00 0.00 62 999.4
20260505224552 28 316 16.1 24.1 0.00 0.00 0.00 57 999.0
20260505223101 29 309 11.3 20.9 0.00 0.00 0.00 53 998.7
20260505221604 30 312 17.7 25.7 0.00 0.00 0.00 51 998.4
20260505220113 32 317 9.7 16.1 0.00 0.00 0.00 53 998.1
20260505214603 32 194 3.2 9.7 0.00 0.00 0.00 53 998.4
20260505213046 32 259 3.2 8.0 0.00 0.00 0.00 53 998.3
20260505211544 32 204 3.2 12.9 0.00 0.00 0.00 53 998.7
20260505210042 31 169 3.2 17.7 0.00 0.00 0.00 57 998.8
20260505204538 31 171 4.8 17.7 0.00 0.00 0.00 57 998.8
20260505203038 31 161 3.2 11.3 0.00 0.00 0.00 56 999.2
20260505201542 30 205 6.4 12.9 0.00 0.00 0.00 59 999.4
20260505200045 30 205 4.8 12.9 0.00 0.00 0.00 59 999.4
20260505194539 30 166 6.4 14.5 0.00 0.00 0.00 61 999.4
20260505193037 30 178 6.4 20.9 0.00 0.00 0.00 60 999.4
20260505191530 29 175 6.4 20.9 0.00 0.00 0.00 63 999.5
20260505190026 28 228 4.8 17.7 0.00 0.00 0.00 64 999.3
20260505184528 28 182 9.7 17.7 0.00 0.00 0.00 63 999.5
20260505183040 28 209 6.4 19.3 0.00 0.00 0.00 62 999.6
20260505181525 28 161 8.0 19.3 0.00 0.00 0.00 65 999.6
20260505180021 28 208 6.4 16.1 0.00 0.00 0.00 66 999.6
20260505174521 27 175 8.0 22.5 0.00 0.00 0.00 67 999.5
20260505173022 27 202 8.0 20.9 0.00 0.00 0.00 69 999.5
20260505171515 26 176 9.7 16.1 0.00 0.00 0.00 70 999.6
20260505170014 26 224 8.0 17.7 0.00 0.00 0.00 71 999.7
20260505164510 26 197 9.7 16.1 0.00 0.00 0.00 73 999.8
20260505163009 25 196 8.0 19.3 0.00 0.00 0.00 73 999.9
20260505161507 25 173 8.0 19.3 0.00 0.00 0.00 73 999.7
20260505153002 24 130 8.0 20.9 0.00 0.00 0.00 77 999.3
20260505151608 23 196 9.7 22.5 0.00 0.00 0.00 78 999.3
20260505124603 21 157 9.7 29.0 0.00 0.00 0.00 83 999.1
20260505123054 21 177 8.0 16.1 0.00 0.00 0.00 83 998.9
20260505121553 21 196 8.0 20.9 0.00 0.00 0.00 83 998.8
20260505120056 21 169 9.7 24.1 0.00 0.00 0.00 82 998.6
20260505114551 21 182 11.3 20.9 0.00 0.00 0.00 82 998.5
20260505113055 21 198 9.7 20.9 0.00 0.00 0.00 82 998.5
20260505111550 21 165 9.7 22.5 0.00 0.00 0.00 82 998.4
20260505101547 22 167 12.9 25.7 0.00 0.00 0.00 81 998.1
20260505100047 22 153 9.7 19.3 0.00 0.00 0.00 81 998.6
20260505094546 22 172 9.7 29.0 0.00 0.00 0.00 81 998.4
20260505093044 22 174 11.3 19.3 0.00 0.00 0.00 81 998.8
20260505091542 22 173 8.0 22.5 0.00 0.00 0.00 81 999.0
20260505090042 22 175 12.9 22.5 0.00 0.00 0.00 80 999.0
20260505084545 22 157 11.3 22.5 0.00 0.00 0.00 79 999.0
20260505083036 22 132 11.3 19.3 0.00 0.00 0.00 79 998.9
20260505081534 22 185 6.4 19.3 0.00 0.00 0.00 79 999.0
20260505080037 22 150 11.3 22.5 0.00 0.00 0.00 78 999.0
20260505074535 22 148 9.7 25.7 0.00 0.00 0.00 77 999.2
20260505073038 22 169 9.7 24.1 0.00 0.00 0.00 77 999.6
20260505071526 22 177 11.3 17.7 0.00 0.00 0.00 76 999.6
20260505070036 22 191 11.3 20.9 0.00 0.00 0.00 75 999.9
20260505064522 23 181 9.7 22.5 0.00 0.00 0.00 74 1000.0
20260505063022 23 180 9.7 24.1 0.00 0.00 0.00 74 1000.1
20260505061524 23 186 9.7 22.5 0.00 0.00 0.00 73 1000.2
20260505060020 23 176 9.7 22.5 0.00 0.00 0.00 73 1000.1
20260505054523 23 163 8.0 19.3 0.00 0.00 0.00 72 1000.3
20260505053020 23 185 11.3 22.5 0.00 0.00 0.00 72 1000.4
20260505051520 23 194 9.7 20.9 0.00 0.00 0.00 71 1000.5
20260505041529 23 177 11.3 22.5 0.00 0.00 0.00 70 1000.6
20260505040023 23 173 8.0 20.9 0.00 0.00 0.00 70 1000.7
20260505034521 23 199 8.0 17.7 0.00 0.00 0.00 70 1000.7
20260505033014 23 180 9.7 25.7 0.00 0.00 0.00 69 1000.8
20260505031523 23 154 11.3 25.7 0.00 0.00 0.00 69 1000.9
20260505030011 23 144 11.3 22.5 0.00 0.00 0.00 69 1000.9
20260505024512 24 187 8.0 17.7 0.00 0.00 0.00 68 1001.1
20260505023012 24 178 8.0 22.5 0.00 0.00 0.00 68 1001.1
20260505021512 24 143 11.3 22.5 0.00 0.00 0.00 67 1000.8
20260505020011 24 196 9.7 25.7 0.00 0.00 0.00 67 1000.7
20260505014509 24 136 12.9 29.0 0.00 0.00 0.00 66 1000.6
20260505013010 25 177 9.7 19.3 0.00 0.00 0.00 65 1000.8
20260505011509 25 143 11.3 24.1 0.00 0.00 0.00 65 1000.6
20260505010009 25 159 11.3 22.5 0.00 0.00 0.00 65 1000.7